Location: Grand Lay
(47.3253°N, 0.9468°E)
Time: 18:47:48
(UTC+00:00)

Gbstr 26 Del rocket - Pass Details

Date: 12 April 2026
Orbit: 490 x 1216 km, 51.8° (Epoch: 13 May)

Event Time Altitude Azimuth Distance (km) Brightness Sun altitude
Exits shadow 03:39:07 16° 293° (WNW) 1,361 4.5 -15.6°
Maximum altitude 03:41:47 41° 359° (N) 726 3.7 -15.2°
Drops below altitude 10° 03:45:23 10° 72° (ENE) 1,714 6.7 -14.7°
Sets 03:47:43 0° 79° (E) 2,647 7.7 -14.3°
